Location: Les Coudrans
(46.1056°N, 1.1158°W)
Time: 20:56:02
(UTC+00:00)

SJ-6B - Pass Details

Date: 03 March 2021
Orbit: 509 x 581 km, 97.6° (Epoch: 20 April)

Event Time Altitude Azimuth Distance (km) Brightness Sun altitude
Exits shadow 19:21:37 27° 121° (ESE) 1,110 3.8 -16.0°
Maximum altitude 19:23:16 41° 71° (ENE) 837 3.3 -16.3°
Drops below altitude 10° 19:27:06 10° 1° (N) 1,877 5.6 -16.9°
Sets 19:29:19 0° 354° (N) 2,768 6.6 -17.3°
